SITRO-AIS 29

Last updated on Thu Nov 21 2024 00:03:40 GMT+0000 (Coordinated Universal Time)

1 59052U 24039B 24325.57163064 .00068476 00000+0 15006-2 0 9991 2 59052 97.4081 287.9038 0015043 35.4756 324.7489 15.43735655 40579
UTC large
Height (km)
Speed (km/s)
/
Latitude / Longitude
Inclination (degrees)
Orbital Period (minutes)
Azimuth
Elevation
Range (km)
Doppler Factor

Next 0 passes for location: London (51.5072 / 0.1276)

Sorry there are no passes over London.